www.pogodaiklimat.ru

Погода и климат >> Архив погоды >> Россия >> Якутия >> Усть-Мая


АРХИВ ПОГОДЫ в Усть-Мае

Время (UTC), дата Ветер
(напр.,м/с)
 
Видим.   Явления Облачность Т
(С)
Тd
(С)
f
(%)
Тe
(С)
Тes
(С)
Комфортность P
(гПа)
Po
(гПа)
Тmin
(С)
Tmax
(С)
R
(мм)
R24
(мм)
S
(см)
06 9.09 С 3 50 км 8/5 1000 м
[Cb cap Ci fib]
+13.0 +3.1 51 +12 +13 1005.4 985.4
09 9.09 СЗ 2 50 км 4/4 1000 м
[Sc diur, vesp]
+12.1 +3.2 54 +11 +11 1006.5 986.4 +13.4
12 9.09 З 2 50 км 1/0
[Ac lent]
+6.4 +2.6 77 +4 +4 1008.1 987.6
15 9.09 З 2 50 км ясно +3.8 +2.0 88 +1 +1 1008.7 988.0
18 9.09 З 2 50 км ясно +2.3 +1.3 93 -1 -1 1009.2 988.3
21 9.09 Ю 1 50 км 3/3 1000 м
[Sc Ac trans]
+3.0 +2.8 99 +1 +1 1009.7 988.9 +2.2
00 10.09 ЮВ 2 50 км 5/4 1000 м
[Cu Sc Ac trans]
+8.4 +5.4 81 +7 +8 1010.2 989.8
03 10.09 СЗ 2 50 км 3/3 1000 м
[Cu hum]
+15.5 +6.2 54 +16 +20 1009.6 989.7
06 10.09 СЗ 3 50 км 3/3 1000 м
[Cu hum]
+19.0 +5.1 40 +20 +22 1008.5 988.8
09 10.09 З 2 50 км 9/4 1000 м
[Sc Ac trans]
+16.6 +7.1 53 +17 +17 1009.1 989.3 +19.0
12 10.09 З 1 50 км 9/5 1000 м
[Sc Ac trans]
+10.7 +7.8 82 +10 +10 1011.0 990.7
15 10.09 ЮЗ 2 50 км 8/3 1000 м
[Sc Ac trans]
+9.8 +7.6 86 +8 +8 1011.6 991.2
18 10.09 З 1 50 км 3/0
[Ac trans]
+6.2 +5.6 96 +5 +5 1012.6 992.0
21 10.09 ЮЗ 1 50 км 3/0
[Ac trans Ci fib]
+4.0 +3.4 96 +2 +2 1013.5 992.6 +4.0
00 11.09 ЮЗ 2 50 км 3/0
[Ac trans]
+12.0 +7.5 74 +11 +14 1013.0 992.8 +3.6
03 11.09 Ю 2 50 км 8/1 1000 м
[Cu med, cong Ac trans]
+18.0 +7.5 50 +19 +22 1011.4 991.6
06 11.09 ЮЗ 2 50 км 8/3 1000 м
[Cu med, cong Ac trans]
+18.3 +4.8 41 +19 +20 1009.9 990.2
09 11.09 штиль 0 50 км 8/0
[Ac trans]
+16.5 +7.9 57 +16 +16 1008.9 989.1 +19.3
12 11.09 СЗ 1 50 км 10/4 1000 м
[Cb cap Ac trans]
+11.9 +8.0 77 +12 +12 1009.5 989.4
15 11.09 Ю 2 50 км 10/4 1000 м
[Cb cap Ac trans]
+11.9 +6.5 69 +11 +11 1009.2 989.0
18 11.09 Ю 2 50 км 10/4 1000 м
[Cb cap Ac trans]
+9.7 +6.6 81 +8 +8 1008.8 988.5
21 11.09 Ю 2 50 км 5/3 1000 м
[Cb cap Ac trans]
+9.5 +6.7 83 +8 +8 1009.0 988.7 +7.9
00 12.09 ЮЗ 4 50 км ясно +11.8 +6.3 69 +10 +12 1009.1 988.9
03 12.09 ЮЗ 5 50 км 1/0
[Ci fib]
+18.3 +6.3 45 +18 +21 1007.6 988.0
06 12.09 ЮЗ 2 50 км 8/4 1000 м
[Cu med, cong Ci fib]
+19.7 +6.2 41 +21 +23 комфорт 1005.9 986.4
09 12.09 ЮВ 4
{12}
50 км в посл. час ливневой дождь 10/5
[Cb cap As trans]
+17.1 +6.1 48 +17 +17 1004.4 984.7 +20.5 0.0
12 12.09 ЮВ 3 50 км 8/3 1000 м
[Sc Ac trans]
+15.1 +5.9 54 +15 +15 1002.5 982.7
15 12.09 ЮВ 3 50 км 10/0
[Ac As]
+16.1 +5.0 48 +16 +16 999.2 979.5
18 12.09 Ю 7-10
{11}
50 км 10/5 600 м
[Cb cap Ac As]
+15.3 +5.3 51 +14 +14 996.1 976.5
21 12.09 Ю 8-11
{11}
50 км {ливн. осадки} 10/5 600 м
[Cb cap As op]
+12.8 +8.7 76 +10 +10 994.8 975.0 +12.2 0.1
00 13.09 Ю 7-10
{12}
50 км в посл. час ливневой дождь 10/4 1000 м
[Cb cap As trans]
+14.4 +7.8 65 +12 +13 993.8 974.1
03 13.09 З 2
{10}
50 км слаб. ливневой дождь 10/5 1000 м
[Cb cap As trans Cs]
+14.0 +11.0 82 +13 +15 993.7 974.0
06 13.09 З 2 20 км слаб. ливневой дождь 10/8 700 м
[Cb cap As trans]
+10.3 +9.4 94 +9 +9 995.2 975.2
09 13.09 ЮЗ 2 20 км слаб. ливневой дождь 10/10 330 м
[Cb cap]
+9.7 +9.4 98 +8 +8 996.7 976.7 +14.9 5
12 13.09 ЮЗ 2 20 км слаб. дождь 10/3 1000 м
[Sc As op]
+9.1 +8.8 98 +7 +7 997.8 977.7
15 13.09 СЗ 3 20 км слаб. дождь 10/0
[As op]
+7.2 +6.3 94 +4 +4 998.5 978.3
18 13.09 СЗ 3 20 км слаб. дождь 10/0
[As op]
+4.9 +3.8 93 +1 +1 999.5 979.0
21 13.09 СЗ 3 10 км слаб. дождь 10/0
[As op]
+4.3 +3.1 92 +1 +1 1000.8 980.2 +4.3 12
00 14.09 З 3 50 км {дождь} 10/4 300 м
[Frnb Ac As]
+3.1 +0.8 85 -1 -0 1002.4 981.8 +3.1
03 14.09 СЗ 4 50 км 10/0
[Ac As]
+4.8 -2.2 60 +1 +2 1003.3 982.7
06 14.09 СЗ 3
{10}
50 км 10/0
[Ac As]
+7.2 -6.0 38 +5 +6 1003.9 983.4
09 14.09 СЗ 2 50 км 8/0
[Ac trans Ci fib]
+7.2 -6.6 37 +6 +6 1004.5 984.1 +8.1 1
12 14.09 З 1 50 км 3/0
[Ac trans Ci fib]
-0.7 -5.3 71 -2 -2 1006.3 985.3
15 14.09 ЮЗ 1 50 км 3/0
[Ci fib]
-3.0 -5.4 83 -5 -5 1007.1 985.9
18 14.09 З 2 50 км ясно +3.9 -6.6 46 +2 +2 1007.4 986.1
21 14.09 З 1 2000 м дымка 3/3 300 м
[St]
-4.8 -5.5 95 -7 -7 1007.4 986.0 -6.3
00 15.09 Ю 1 50 км {туман} 3/3 300 м
[St Ac trans]
+0.6 -2.4 80 -1 +1 1006.8 985.8
03 15.09 Ю 1 50 км 3/0
[Ac trans Ci fib]
+8.2 -7.1 33 +8 +14 1005.2 984.9
06 15.09 СВ 1 50 км 1/0
[Ci fib]
+10.5 -6.0 31 +11 +14 1003.3 983.1
09 15.09 В 1 50 км ясно +9.1 -4.6 38 +9 +9 1003.3 983.0 +11.1
12 15.09 штиль 0 50 км ясно -1.3 -4.5 79 -2 -2 1004.9 983.8
15 15.09 СЗ 2 50 км ясно -3.1 -6.0 80 -7 -7 1005.2 983.9
18 15.09 С 2 50 км 5/0
[Cs]
-3.9 -5.1 91 -8 -8 1004.5 983.2
21 15.09 С 2 50 км 10/0
[Ac As]
-3.0 -4.3 91 -7 -7 1003.3 982.1 -4.0
00 16.09 С 1 50 км 10/4 1000 м
[Sc As trans]
+0.4 -1.4 88 -2 -1 1003.3 982.5
03 16.09 СВ 2 50 км 10/4 1000 м
[Sc Ac As]
+4.8 -0.2 70 +2 +3 1002.0 981.5

 

Местоположение метеостанции Усть-Мая (Якутия, Россия): широта 60.35 долгота 134.40 высота над уровнем моря 170 м.

В архиве по умолчанию представлена погода в Усть-Мае за последнюю неделю. Архивные данные за месяц целиком и за предыдущие месяцы, начиная с января 2011 года, Вы можете получить, выбрав интересующий диапазон дат из раскрывающегося списка и нажав кнопку "Ввод!".


*Определитесь, кто Вы:
робот инопланетянин человек

Внимание! Время в таблицах - всемирное. Для получения местного времени необходимо прибавить поправку, которая равна 9 ч.

Смотрите также архив погоды в соседних городах и на ближайших метеорологических станциях:

Погода в Усть-Миле (Якутия, Россия) (112 км)
Погода в Усть-Юдоме (Якутия, Россия) (136 км)
Погода в Амге (Якутия, Россия) (149 км)
Погода в Охотском Перевозе (Якутия, Россия) (179 км)
Погода в Югоренке (Якутия, Россия) (189 км)
Погода в Чурапче (Якутия, Россия) (210 км)
Погода в Ытык-Кюёле (Якутия, Россия) (230 км)
Погода в Тегюльте (Якутия, Россия) (242 км)
Погода в Крест-Хальджае (Якутия, Россия) (275 км)
Погода в Учуре (Якутия, Россия) (280 км)

Пояснения к столбцам:

Ветер - указаны скорость ветра в м/с - средняя за 10 мин, порывы в срок и между сроками (в фигурных скобках) и направление, откуда дует ветер: С - северный, СВ - северо-восточный, В - восточный, ЮВ - юго-восточный, Ю - южный, ЮЗ - юго-западный, З - западный, СЗ - северо-западный.
Видимость - горизонтальная дальность видимости в метрах или километрах. При видимости от 1 до 10 км при отсутствии осадков обычно наблюдается дымка, при ухудшении видимости до 1 км и менее - туман. В сухую погоду видимость может ухудшаться дымом, пылью или мглою.
Явления - указаны атмосферные явления, наблюдавшиеся в срок или в последний час перед сроком; фигурными скобками обозначены явления, наблюдавшиеся между сроками (за 1-3 часа до срока); квадратными скобками обозначены град или гололедные отложения с указанием их диаметра в мм.
Облачность - указаны через наклонную черту общая и нижняя облачность в баллах и высота нижней границы облаков в метрах; квадратными скобками обозначены формы облаков: Ci - перистые, Cs - перисто-слоистые, Cc - перисто-кучевые, Ac - высококучевые, As - высокослоистые, Sc - слоисто-кучевые, Ns - слоисто-дождевые, Cu - кучевые, Cb - кучево-дождевые. Подробнее классификацию облаков см. в Атласе облаков (PDF).
T - Температура воздуха - температура, измеренная на высоте 2 м над землей.
Td - Температура точки росы - температура, при понижении до которой содержащийся в воздухе водяной пар достигнет насыщения.
f - Относительная влажность воздуха - влажноcть воздуха, измеренная на высоте 2 м над землей.
Te - Эффективная температура - температура, которую ощущает одетый по сезону человек в тени. Характеристика душности погоды. При расчете учитывается влияние влажности воздуха и скорости ветра на теплоощущения человека.
Tes - Эффективная температура на солнце - температура, которую ощущает человек, с поправкой на солнечный нагрев. Характеристика знойности погоды. Зависит от высоты солнца над горизонтом, облачности и скорости ветра. Ночью, в пасмурную погоду, а также при ветре 12 м/с и более поправка равна нулю.
P - Атмосферное давление - приведенное к уровню моря атмосферное давление.
Po - Атмосферное давление - измеренное на уровне метеостанции атмосферное давление.
Tmin - Минимальная температура - минимум температуры воздуха на высоте 2 м над землей.
Tmax - Максимальная температура - максимум температуры воздуха на высоте 2 м над землей.
R - Количество осадков - Количество выпавших осадков за период времени, мм. При наведении курсора мыши на число - период времени, за который выпало указанное количество осадков.
R24 - Количество осадков - Количество выпавших осадков за 24 часа, мм.
S - Снежный покров - Высота снежного покрова, см. При наведении курсора мыши на число - состояние снежного покрова и степень покрытия местности в баллах.